Location: Goll?ig?dem
(16.6773°N, 80.7332°E)
Time: 23:42:12
(UTC+00:00)

Cosmos 2263 Rocket - Pass Details

Date: 19 May 2025
Orbit: 821 x 849 km, 71.0° (Epoch: 18 June)

Event Time Altitude Azimuth Distance (km) Brightness Sun altitude
Exits shadow 22:16:55 18° 311° (NW) 1,956 3.9 -24.1°
Drops below altitude 10° 22:19:26 10° 336° (NNW) 2,443 4.7 -23.5°
Sets 22:22:36 0° 354° (N) 3,384 5.7 -22.9°
